Flag for Guadeloupe Weather past 2 weeks in Basse-Terre, Guadeloupe

Now
77 °F

Clear.


Feels Like: 78 °F
Forecast: 74 / 82 °F
Wind: 5 mph from South

Location: Le Raizet - Guadeloupe

Current Time: Apr 25, 2015 at 9:58:49 PM

Latest Report: Apr 25, 2015 at 9:30 PM


Visibility: N/A

Pressure: 29.98 "Hg

Humidity: 83%

Dew point: 72 °F

Location of Basse-TerreLocation

Historic Weather in Basse-Terre — Graph

°F

Basse-Terre temperature yesterday

Maximum temperature yesterday: 84 °F (at 9:00 AM)
Minimum temperature yesterday: 72 °F (at 3:30 AM)
Average temperature yesterday: 77 °F

Past Weeks' High & Low Weather Summary

 TemperatureHumidityPressure
High86 °F (Apr 13, 11:30 AM)94% (Apr 19, 5:30 AM)30.12 "Hg (Apr 19, 5:30 AM)
Low70 °F (Apr 21, 2:00 AM)51% (Apr 12, 10:30 AM)29.92 "Hg (Apr 22, 3:30 PM)
Average79 °F73%30.01 "Hg
* Reported Apr 10 9:00 PM — Apr 25 9:00 PM, Basse-Terre, Weather by CustomWeather, © 2015

Note: Actual official high and low records may vary slightly from our data, if they occured in-between our weather recording intervals... More about our weather records

Advertising

Basse-Terre weather history for previous 24 hours

 ConditionsComfort  
Time TempWeatherWind HumidityBarometerVisibility
9:00 PM
Sat, Apr 25
77 °FPassing clouds.5 mph83%29.98 "HgN/A
8:30 PM79 °FClear.6 mph79%29.98 "HgN/A
8:00 PM79 °FPassing clouds.7 mph79%29.95 "HgN/A
7:30 PM79 °FPartly cloudy.6 mph79%29.95 "HgN/A
7:00 PM79 °FPassing clouds.6 mph79%29.95 "HgN/A
6:30 PM81 °FPassing clouds.9 mph74%29.95 "HgN/A
6:00 PM82 °FPassing clouds.10 mph70%29.92 "HgN/A
5:00 PM82 °FScattered clouds.12 mph70%29.92 "HgN/A
4:30 PM82 °FScattered clouds.14 mph70%29.92 "HgN/A
4:00 PM82 °FScattered clouds.13 mph66%29.92 "HgN/A
3:30 PM84 °FScattered clouds.14 mph66%29.92 "HgN/A
3:00 PM84 °FScattered clouds.15 mph66%29.92 "HgN/A
2:30 PM84 °FScattered clouds.16 mph62%29.95 "HgN/A
2:00 PM86 °FScattered clouds.12 mph62%29.95 "HgN/A
1:30 PM84 °FScattered clouds.13 mph66%29.95 "HgN/A
1:00 PM84 °FScattered clouds.13 mph66%29.98 "HgN/A
12:30 PM84 °FScattered clouds.15 mph66%29.98 "HgN/A
12:00 PM84 °FScattered clouds.14 mph66%29.98 "HgN/A
11:30 AM84 °FScattered clouds.13 mph66%30.01 "HgN/A
11:00 AM82 °FScattered clouds.14 mph70%30.01 "HgN/A
10:30 AM84 °FScattered clouds.13 mph66%30.01 "HgN/A
10:00 AM84 °FScattered clouds.12 mph66%30.01 "HgN/A
9:30 AM82 °FScattered clouds.10 mph70%30.01 "HgN/A
9:00 AM82 °FScattered clouds.13 mph74%30.01 "HgN/A
8:30 AM81 °FScattered clouds.10 mph74%30.01 "HgN/A
8:00 AM81 °FScattered clouds.12 mph74%30.01 "HgN/A
7:30 AM81 °FScattered clouds.8 mph74%30.01 "HgN/A
7:00 AM77 °FPartly sunny.No wind89%30.01 "HgN/A
6:30 AM75 °FScattered clouds.2 mph89%30.01 "HgN/A
6:00 AM73 °FClear.2 mph94%29.98 "HgN/A
5:30 AM73 °FClear.3 mph94%29.98 "HgN/A
5:00 AM73 °FPassing clouds.3 mph94%29.98 "HgN/A
4:30 AM73 °FClear.2 mph94%29.98 "HgN/A
4:00 AM73 °FPassing clouds.2 mph94%29.98 "HgN/A
3:30 AM75 °FMostly cloudy.1 mph89%29.95 "HgN/A
3:00 AM75 °FOvercast.1 mph89%29.95 "HgN/A
2:30 AM75 °FPassing clouds.2 mph89%29.95 "HgN/A
2:00 AM75 °FPartly cloudy.2 mph89%29.95 "HgN/A
1:30 AM75 °FPartly cloudy.2 mph89%29.95 "HgN/A
1:00 AM75 °FPassing clouds.3 mph89%29.98 "HgN/A
12:30 AM77 °FFog.2 mph83%29.98 "Hg2 mi
12:00 AM77 °FOvercast.2 mph89%29.98 "HgN/A
11:30 PM
Fri, Apr 24
75 °FMostly cloudy.3 mph89%29.98 "HgN/A
11:00 PM75 °FPartly cloudy.3 mph89%29.98 "HgN/A
10:30 PM77 °FLight rain. Passing clouds.5 mph83%30.01 "HgN/A
10:00 PM77 °FOvercast.2 mph89%29.98 "HgN/A
9:30 PM77 °FOvercast.3 mph89%29.98 "HgN/A
9:00 PM77 °FPartly cloudy.3 mph89%29.98 "HgN/A
Weather by CustomWeather, © 2015

See weather overviewHow to use our weather pages